Change the Weather History Date:

Thursday, October 4, 2012

  Actual Average Record
Temperature  
Mean Temperature 44 °F 54 °F  
Max Temperature 51 °F 68 °F 96 °F (1922)
Min Temperature 37 °F 41 °F 21 °F (1935)
Degree Days  
Heating Degree Days 21 11  
Month to date heating degree days 37 42  
Since 1 July heating degree days 178 200  
Cooling Degree Days 0 1  
Month to date cooling degree days 0 4  
Year to date cooling degree days 1236 821  
Moisture  
Dew Point 30 °F    
Average Humidity 59    
Maximum Humidity 76    
Minimum Humidity 42    
Precipitation  
Precipitation 0.00 in 0.06 in 2.38 in (1998)
Month to date precipitation T 0.26  
Year to date precipitation 20.36 18.93  
Snow  
Snow 0.00 in - T in (1950)
Month to date snowfall 0.0  
Since 1 July snowfall 0.0  
Since 1 September snowfall 0.0  
Snow Depth 0.00 in    
Sea Level Pressure  
Sea Level Pressure 30.23 in    
Wind  
Wind Speed 19 mph (NW)    
Max Wind Speed 37 mph    
Max Gust Speed 47 mph    
Visibility 10 miles    
Events      
T = Trace of Precipitation, MM = Missing Value Source: NWS Daily Summary

Daily Weather History Graph

Daily Weather History Graph

Search for Another Location

Airport or City:

Trip Planner

Search our weather history database for the weather conditions in past years. The results will help you decide how hot, cold, wet, or windy it might be!

Date:

Astronomy

Oct. 04, 2012 Rise Set
Actual Time 7:33 AM CDT 7:06 PM CDT
Civil Twilight 7:05 AM CDT 7:35 PM CDT
Nautical Twilight 6:31 AM CDT 8:08 PM CDT
Astronomical Twilight 5:58 AM CDT 8:42 PM CDT
Moon 9:34 PM CDT (10/4) 12:01 PM CDT (10/4)
Length of Visible Light 12h 30m
Length of Day
11h 32m
Waning Gibbous, 82% of the Moon is Illuminated
Oct 4
Waning Gibbous
Oct 8
Last Quarter
Oct 15
New
Oct 21
First Quarter
Oct 29
Full

Hourly Weather History & Observations

Time (CDT) Temp. Windchill Dew Point Humidity Pressure Visibility Wind Dir Wind Speed Gust Speed Precip Events Conditions
12:53 AM 46.9 °F - 37.9 °F 71% 30.02 in 10.0 mi NW 32.2 mph 41.4 mph N/A   Overcast
1:35 AM 42.8 °F 32.5 °F 35.6 °F 76% 30.07 in 10.0 mi WNW 28.8 mph 41.4 mph N/A   Overcast
1:53 AM 42.1 °F 31.5 °F 34.0 °F 73% 30.08 in 10.0 mi NW 28.8 mph 38.0 mph N/A   Overcast
2:01 AM 42.8 °F 31.6 °F 33.8 °F 70% 30.09 in 10.0 mi WNW 34.5 mph 47.2 mph N/A   Overcast
2:53 AM 41.0 °F 31.9 °F 32.0 °F 70% 30.09 in 10.0 mi NW 19.6 mph 40.3 mph N/A   Mostly Cloudy
3:24 AM 41.0 °F 31.1 °F 33.8 °F 76% 30.11 in 10.0 mi NW 23.0 mph 31.1 mph N/A   Overcast
3:53 AM 42.1 °F 31.5 °F 34.0 °F 73% 30.12 in 10.0 mi NW 28.8 mph 40.3 mph N/A   Overcast
4:53 AM 41.0 °F 29.8 °F 32.0 °F 70% 30.13 in 10.0 mi NW 29.9 mph 40.3 mph N/A   Mostly Cloudy
5:02 AM 41.0 °F 30.0 °F 32.0 °F 70% 30.13 in 10.0 mi NW 28.8 mph 38.0 mph N/A   Scattered Clouds
5:23 AM 42.8 °F 33.3 °F 33.8 °F 70% 30.15 in 10.0 mi NW 24.2 mph 36.8 mph N/A   Mostly Cloudy
5:53 AM 39.9 °F 29.7 °F 32.0 °F 73% 30.17 in 10.0 mi NW 23.0 mph 36.8 mph N/A   Scattered Clouds
6:40 AM 41.0 °F 30.7 °F 32.0 °F 70% 30.18 in 10.0 mi NW 25.3 mph 32.2 mph N/A   Mostly Cloudy
6:53 AM 42.1 °F 31.9 °F 32.0 °F 67% 30.20 in 10.0 mi NW 26.5 mph 36.8 mph N/A   Overcast
7:53 AM 42.1 °F 32.3 °F 30.9 °F 65% 30.24 in 10.0 mi NW 24.2 mph 31.1 mph N/A   Overcast
8:53 AM 42.1 °F 32.8 °F 30.9 °F 65% 30.26 in 10.0 mi NW 21.9 mph 31.1 mph N/A   Overcast
9:53 AM 43.0 °F 33.5 °F 30.0 °F 60% 30.28 in 10.0 mi NNW 24.2 mph 34.5 mph N/A   Overcast
10:17 AM 44.6 °F 35.1 °F 28.4 °F 53% 30.27 in 10.0 mi NW 27.6 mph 32.2 mph N/A   Overcast
10:53 AM 46.0 °F 37.4 °F 28.9 °F 51% 30.29 in 10.0 mi NNW 25.3 mph 36.8 mph N/A   Overcast
11:53 AM 46.0 °F 37.0 °F 28.0 °F 50% 30.31 in 10.0 mi NW 27.6 mph 36.8 mph N/A   Overcast
12:53 PM 48.9 °F - 28.0 °F 44% 30.32 in 10.0 mi NW 25.3 mph 33.4 mph N/A   Overcast
1:53 PM 48.0 °F - 30.0 °F 50% 30.32 in 10.0 mi NW 24.2 mph 32.2 mph N/A   Overcast
2:53 PM 50.0 °F - 28.9 °F 44% 30.31 in 10.0 mi NNW 19.6 mph 29.9 mph N/A   Mostly Cloudy
3:53 PM 50.0 °F - 28.0 °F 43% 30.31 in 10.0 mi NW 21.9 mph - N/A   Overcast
4:53 PM 48.9 °F - 27.0 °F 43% 30.32 in 10.0 mi NNW 16.1 mph - N/A   Overcast
5:53 PM 48.0 °F - 26.1 °F 42% 30.32 in 10.0 mi NNW 17.3 mph - N/A   Scattered Clouds
6:53 PM 46.0 °F 39.9 °F 27.0 °F 47% 30.33 in 10.0 mi NNW 13.8 mph - N/A   Partly Cloudy
7:53 PM 37.9 °F 32.7 °F 25.0 °F 60% 30.35 in 10.0 mi NW 6.9 mph - N/A   Scattered Clouds
8:53 PM 42.1 °F 38.4 °F 27.0 °F 55% 30.36 in 10.0 mi WNW 5.8 mph - N/A   Overcast
9:53 PM 42.1 °F 36.1 °F 26.1 °F 53% 30.36 in 10.0 mi NW 10.4 mph - N/A   Overcast
10:53 PM 37.9 °F 32.1 °F 26.1 °F 62% 30.37 in 10.0 mi WNW 8.1 mph - N/A   Partly Cloudy
11:53 PM 37.0 °F 31.6 °F 26.1 °F 65% 30.36 in 10.0 mi WNW 6.9 mph - N/A   Mostly Cloudy